#timestamp,LO_Frequency,Hit,StdDev 
1590098415.1,286046999.9,N
1590098416.0,286046999.9,N
1590098435.8,286046998.7,N
1590098455.6,286046996.6,N
1590098475.5,286046997.3,N
1590098495.3,286046999.3,N
1590098515.2,286046998.7,N
1590098535.9,286046998.5,N
1590098555.7,286046998.5,N
1590098575.6,286046998.4,N
1590098595.4,286047002.3,N
1590098615.3,286047000.9,N
1590098635.1,286047001.0,N
1590098636.0,286047001.0,N
1590098655.8,286046999.8,N
1590098675.7,286047000.0,N
1590098695.5,286046999.9,N
1590098715.3,286047000.0,N
1590098735.2,286046999.9,N
1590098755.0,286046998.1,N
1590098755.9,286046998.1,N
1590098775.8,286047000.7,N
1590098795.6,286046998.1,N
1590098815.4,286046996.5,N
1590098835.3,286046998.7,N
1590098855.1,286046998.3,N
1590098875.9,286047001.2,N
1590098895.7,286047000.3,N
1590098915.5,286047000.2,N
1590098935.4,286047001.6,N
1590098955.2,286047000.4,N
1590098975.0,286047001.2,N
1590098975.9,286047001.2,N
1590098995.8,286047001.1,N
1590099015.6,286047002.3,N
1590099035.5,286047002.5,N
1590099055.3,286047001.6,N
1590099075.1,286047001.6,N
1590099095.9,286046999.7,N
1590099115.7,286047000.8,N
1590099135.6,286047000.7,N
1590099155.4,286046998.9,N
1590099175.2,286046999.2,N
1590099195.1,286046998.7,N
1590099196.0,286046998.7,N
1590099215.8,286046996.9,N
1590099235.7,286046998.8,N
1590099255.5,286047000.9,N
1590099275.3,286046998.3,N
1590099295.2,286046999.3,N
1590099315.0,286047011.9,Y
1590099315.9,286046998.5,P
1590099335.8,286046999.0,N
1590099355.6,286046998.0,P
1590099375.4,286046997.6,Y
1590099395.3,286046997.7,P
1590099415.1,286046997.2,P
1590099435.8,286046995.1,P
1590099455.7,286046994.9,Y
1590099475.5,286046998.5,P
1590099495.4,286046999.6,N
1590099515.2,286046996.5,P
1590099535.0,286046996.8,N
1590099535.9,286046996.8,N
1590099555.8,286046995.3,Y
1590099575.6,286047001.2,P
1590099595.5,286047000.5,N
1590099615.3,286047000.6,N
1590099635.1,286046998.5,N
1590099655.9,286046999.5,N
1590099675.7,286046998.3,N
1590099695.5,286046998.1,N
1590099715.4,286046998.2,N
1590099735.2,286047001.7,N
1590099755.1,286047001.6,N
1590099756.0,286047001.6,N
1590099775.8,286047000.0,N
1590099795.6,286047000.1,N
1590099815.5,286047002.6,N
1590099835.3,286047002.6,N
1590099855.1,286047001.4,N
1590099875.9,286047004.0,N
1590099895.7,286047003.6,N
1590099915.6,286047007.1,Y
1590099935.4,286047004.8,P
1590099955.3,286047003.3,N
1590099975.1,286047004.3,N
1590099976.0,286047004.3,N
1590099995.8,286047002.0,N
1590100015.7,286047000.1,N
1590100035.5,286047002.8,N
1590100055.3,286047002.4,N
1590100075.2,286047002.7,N
1590100095.0,286047000.5,N
1590100095.9,286047000.5,N
1590100115.8,286047000.9,N
1590100135.6,286047000.9,N
1590100155.4,286047001.6,N
1590100175.3,286047002.2,N
1590100195.1,286047003.2,N
1590100215.8,286047003.5,N
1590100235.7,286047004.1,N
1590100255.5,286047002.6,N
1590100275.4,286047001.3,N
1590100295.2,286047001.8,N
1590100315.0,286047003.5,N
1590100315.9,286047003.5,N
1590100335.8,286047003.5,N
1590100355.6,286047001.5,N
1590100375.5,286047001.9,N
1590100395.3,286047002.8,N
1590100415.1,286047005.0,Y
1590100435.9,286047004.0,P
1590100455.7,286047001.9,N
1590100475.5,286047000.1,N
1590100495.4,286047002.2,N
1590100515.2,286047002.5,N
1590100535.1,286047000.1,N
1590100536.0,286047000.1,N
1590100555.8,286047000.4,N
1590100575.6,286047001.9,N
1590100595.5,286047003.6,N
1590100615.3,286047004.2,Y
1590100635.2,286047000.5,P
1590100655.9,286047002.5,P
1590100675.7,286047004.3,P
1590100695.6,286047002.0,N
1590100715.4,286047002.6,N
1590100735.2,286047002.1,N
1590100755.1,286047004.4,Y
1590100756.0,286047004.4,P
1590100775.8,286046998.8,N
1590100795.7,286047000.6,N
1590100815.5,286046999.4,N
1590100835.3,286046998.2,N
1590100855.2,286046996.8,N
1590100875.0,286046999.0,N
1590100875.9,286046999.0,N
1590100895.8,286046998.5,N
1590100915.6,286046997.2,N
1590100935.4,286046995.4,N
1590100955.3,286046996.3,N
1590100975.1,286046993.9,N
1590100995.8,286046993.9,N
1590101015.7,286046999.4,N
1590101035.5,286046998.7,N
1590101055.4,286046998.3,N
1590101075.2,286046998.7,N
1590101095.0,286046998.4,N
1590101095.9,286046998.4,N
1590101115.8,286046997.2,N
1590101135.6,286046995.5,N
1590101155.5,286046994.0,N
1590101175.3,286046997.1,N
1590101195.2,286046998.9,N
1590101215.0,286046995.2,N
1590101215.9,286046995.2,N
1590101235.8,286046995.6,N
1590101255.6,286046996.2,N
1590101275.5,286046995.3,N
1590101295.3,286046994.9,N
1590101315.1,286046998.0,N
1590101335.9,286046995.3,N
1590101355.7,286046996.6,N
1590101375.6,286046997.5,N
1590101395.4,286046997.9,N
1590101415.2,286046999.1,N
1590101435.1,286046998.9,N
1590101436.0,286046998.9,N
1590101455.8,286046996.6,N
1590101475.6,286046998.5,N
1590101495.5,286046998.4,N
1590101515.3,286046998.9,N
1590101535.2,286046999.1,N
1590101555.9,286047000.7,N
1590101575.7,286047004.3,N
1590101595.6,286047000.5,N
1590101615.4,286047001.2,N
1590101635.2,286047001.0,N
1590101655.1,286047000.1,N
1590101656.0,286047000.1,N
1590101675.8,286046998.9,N
1590101695.7,286046998.3,N
1590101715.5,286046998.4,N
1590101735.3,286046999.1,N
1590101755.2,286046999.4,N
1590101775.0,286046996.6,N
1590101775.9,286046996.6,N
1590101795.8,286046999.2,N
1590101815.6,286046996.8,N
1590101835.4,286046999.0,N
1590101855.3,286046999.5,N
1590101875.1,286046999.6,N
1590101895.9,286047000.8,N
1590101915.7,286047002.4,N
1590101935.5,286047001.7,N
1590101955.4,286047004.2,N
1590101975.2,286047004.2,N
1590101995.0,286047002.6,N
1590101995.9,286047002.6,N
